Powrót do katalogu

STARLINK-4080

AktywnyŁącznośćVLEO
NORAD 52835·PAYLOAD·🇺🇸 United States

Wystrzelony Jun 17, 2022 z Cape Canaveral Space Force Station

Loading…

Następne Przeloty (najbliższe 24 godziny)

TLE

ŚwieżeSource: CelesTrak SupGP

Epoka: Sep 15, 2026, 01:17 UTC

1 52835C 22062F   26258.05395833 -.00038996  00000+0 -12536-2 0  2587
2 52835  53.1585 254.1688 0001293  91.2152 238.3542 15.31731231    16

Śledź STARLINK-4080 w czasie rzeczywistym z AllMySat

Download on the App Store